Terminal Aerodrome Forecast
Issued by NWS Flagstaff, AZ

Home | Current Version | Previous Version | Text Only | Print | Product List | Glossary On
Versions: 1 2 3 4 5 6 7 8 9 10 11 12 13 14 15 16 17 18 19
000
FTUS45 KFGZ 180100 AAA
TAFFLG
TAF AMD
KFLG 180111Z 1801/1824 07005KT P6SM FEW025 OVC080
      TEMPO 1801/1803 -SHRA BKN025
     FM181600 VRB06KT P6SM VCSH SCT015 OVC040
      TEMPO 1818/1822 3SM TSRA OVC010CB
     FM182200 23008KT P6SM VCSH SCT030 BKN060=

USA.gov is the U.S. government's official web portal to all federal, state and local government web resources and services.